• In Romania
  • List of Countries
  • For 7 days
  • Water Temperature
  • Satellite Maps
  • Weather Map
  • Weather Widgets
  • user-avatar
    Login

    Hourly Weather Primorsko

    Today, 20 October, Friday

    Time Temperature Precipitation Wind Pressure Humidity
    00:00 +18°C° 0 mm 1 mps 762 mmHg 68%
    01:00 +18°C° 0 mm 1 mps 762 mmHg 69%
    02:00 +18°C° 0 mm 1 mps 762 mmHg 69%
    03:00 +18°C° 0 mm 1 mps 762 mmHg 69%
    04:00 +16°C° 0 mm 1 mps 762 mmHg 69%
    05:00 +16°C° 0 mm 1 mps 762 mmHg 69%
    06:00 +18°C° 0 mm 1 mps 762 mmHg 66%
    07:00 +19°C° 0 mm 1 mps 762 mmHg 63%
    08:00 +20°C° 0 mm 1 mps 762 mmHg 58%
    09:00 +22°C° 0 mm 1 mps 762 mmHg 51%
    10:00 +24°C° 0 mm 1 mps 762 mmHg 44%
    11:00 +26°C° 0 mm 1 mps 762 mmHg 37%
    12:00 +27°C° 0 mm 1 mps 762 mmHg 35%
    13:00 +28°C° 0 mm 1 mps 762 mmHg 32%
    14:00 +28°C° 0 mm 2 mps 762 mmHg 30%
    15:00 +27°C° 0 mm 2 mps 762 mmHg 35%
    16:00 +25°C° 0 mm 2 mps 762 mmHg 39%
    17:00 +24°C° 0 mm 2 mps 762 mmHg 43%
    18:00 +23°C° 0 mm 2 mps 762 mmHg 45%
    19:00 +20°C° 0 mm 2 mps 762 mmHg 47%
    20:00 +19°C° 0 mm 2 mps 762 mmHg 49%
    21:00 +20°C° 0 mm 1 mps 762 mmHg 49%
    22:00 +20°C° 0 mm 1 mps 762 mmHg 49%
    23:00 +19°C° 0 mm 1 mps 762 mmHg 50%

    Tomorrow, 21 October, Saturday

    Time Temperature Precipitation Wind Pressure Humidity
    00:00 +19°C° 0 mm 1 mps 762 mmHg 50%
    01:00 +19°C° 0 mm 1 mps 762 mmHg 50%
    02:00 +18°C° 0 mm 1 mps 762 mmHg 50%
    03:00 +18°C° 0 mm 1 mps 762 mmHg 51%
    04:00 +18°C° 0 mm 1 mps 762 mmHg 51%
    05:00 +17°C° 0 mm 2 mps 762 mmHg 51%
    06:00 +17°C° 0 mm 2 mps 762 mmHg 50%
    07:00 +18°C° 0 mm 2 mps 762 mmHg 49%
    08:00 +19°C° 0 mm 2 mps 762 mmHg 48%
    09:00 +21°C° 0 mm 2 mps 762 mmHg 42%
    10:00 +25°C° 0 mm 1 mps 762 mmHg 37%
    11:00 +27°C° 0 mm 1 mps 762 mmHg 31%
    12:00 +27°C° 0 mm 1 mps 761 mmHg 29%
    13:00 +28°C° 0 mm 1 mps 761 mmHg 28%
    14:00 +28°C° 0 mm 1 mps 761 mmHg 26%
    15:00 +27°C° 0 mm 1 mps 760 mmHg 30%
    16:00 +25°C° 0 mm 2 mps 760 mmHg 34%
    17:00 +24°C° 0 mm 2 mps 760 mmHg 38%
    18:00 +23°C° 0 mm 2 mps 760 mmHg 39%
    19:00 +21°C° 0 mm 2 mps 760 mmHg 40%
    20:00 +20°C° 0 mm 2 mps 760 mmHg 42%
    21:00 +19°C° 0 mm 2 mps 760 mmHg 41%
    22:00 +19°C° 0 mm 2 mps 760 mmHg 41%
    23:00 +18°C° 0 mm 2 mps 760 mmHg 41%

    Day after tomorrow, 22 October, Sunday

    Time Temperature Precipitation Wind Pressure Humidity
    00:00 +18°C° 0 mm 2 mps 760 mmHg 42%
    01:00 +18°C° 0 mm 2 mps 760 mmHg 43%
    02:00 +18°C° 0 mm 2 mps 760 mmHg 44%
    03:00 +17°C° 0 mm 2 mps 759 mmHg 46%
    04:00 +17°C° 0 mm 2 mps 759 mmHg 48%
    05:00 +17°C° 0 mm 2 mps 759 mmHg 50%
    06:00 +17°C° 0 mm 2 mps 759 mmHg 50%
    07:00 +18°C° 0 mm 3 mps 759 mmHg 50%
    08:00 +18°C° 0 mm 3 mps 760 mmHg 50%
    09:00 +20°C° 0 mm 3 mps 760 mmHg 46%
    10:00 +22°C° 0 mm 4 mps 760 mmHg 42%
    11:00 +25°C° 0 mm 4 mps 760 mmHg 38%
    12:00 +25°C° 0 mm 4 mps 760 mmHg 38%
    13:00 +25°C° 0 mm 4 mps 760 mmHg 38%
    14:00 +25°C° 0 mm 4 mps 759 mmHg 38%
    15:00 +23°C° 0 mm 4 mps 759 mmHg 46%
    16:00 +21°C° 0 mm 4 mps 760 mmHg 54%
    17:00 +19°C° 0 mm 4 mps 760 mmHg 62%
    18:00 +18°C° 0 mm 4 mps 760 mmHg 69%
    19:00 +17°C° 0 mm 4 mps 760 mmHg 76%
    20:00 +15°C° 0 mm 4 mps 760 mmHg 82%
    21:00 +15°C° 0 mm 4 mps 760 mmHg 85%
    22:00 +15°C° 0 mm 4 mps 760 mmHg 87%
    23:00 +14°C° 0 mm 4 mps 760 mmHg 89%

    23 October, Monday

    Time Temperature Precipitation Wind Pressure Humidity
    00:00 +14°C° 0 mm 4 mps 760 mmHg 90%
    01:00 +14°C° 0 mm 4 mps 760 mmHg 92%
    02:00 +14°C° 0 mm 4 mps 760 mmHg 93%
    03:00 +14°C° 0 mm 4 mps 759 mmHg 94%
    04:00 +14°C° 0 mm 4 mps 759 mmHg 95%
    05:00 +14°C° 0 mm 4 mps 758 mmHg 95%
    06:00 +14°C° 0 mm 4 mps 758 mmHg 93%
    07:00 +15°C° 0 mm 4 mps 758 mmHg 90%
    08:00 +15°C° 0 mm 5 mps 758 mmHg 88%
    09:00 +16°C° 0 mm 5 mps 757 mmHg 81%
    10:00 +19°C° 0 mm 5 mps 757 mmHg 75%
    11:00 +20°C° 0 mm 5 mps 757 mmHg 68%
    12:00 +20°C° 0 mm 5 mps 756 mmHg 66%
    13:00 +21°C° 0 mm 5 mps 756 mmHg 65%
    14:00 +21°C° 0 mm 5 mps 755 mmHg 63%
    15:00 +20°C° 0 mm 5 mps 755 mmHg 68%
    16:00 +19°C° 0 mm 5 mps 755 mmHg 74%
    17:00 +19°C° 0 mm 5 mps 754 mmHg 79%
    18:00 +17°C° 0 mm 5 mps 754 mmHg 84%
    19:00 +16°C° 0 mm 5 mps 754 mmHg 88%
    20:00 +17°C° 0 mm 4 mps 754 mmHg 92%
    21:00 +17°C° 0 mm 4 mps 754 mmHg 93%
    22:00 +15°C° 0 mm 4 mps 754 mmHg 93%
    23:00 +15°C° 0 mm 4 mps 753 mmHg 94%

    24 October, Tuesday

    Time Temperature Precipitation Wind Pressure Humidity
    00:00 +15°C° 0 mm 4 mps 753 mmHg 94%
    01:00 +15°C° 0 mm 4 mps 753 mmHg 93%
    02:00 +15°C° 0 mm 4 mps 753 mmHg 93%
    03:00 +15°C° 0 mm 4 mps 752 mmHg 92%
    04:00 +15°C° 0 mm 4 mps 752 mmHg 91%
    05:00 +15°C° 0 mm 4 mps 752 mmHg 90%
    06:00 +15°C° 0.3 mm 4 mps 752 mmHg 87%
    07:00 +15°C° 0.3 mm 5 mps 752 mmHg 84%
    08:00 +16°C° 0.3 mm 5 mps 753 mmHg 82%
    09:00 +17°C° 0.8 mm 4 mps 753 mmHg 79%
    10:00 +18°C° 0.8 mm 4 mps 753 mmHg 77%
    11:00 +18°C° 0.8 mm 3 mps 753 mmHg 75%
    12:00 +19°C° 0.2 mm 4 mps 753 mmHg 69%
    13:00 +21°C° 0.2 mm 5 mps 753 mmHg 63%
    14:00 +22°C° 0.2 mm 6 mps 753 mmHg 57%
    15:00 +21°C° 0.2 mm 7 mps 753 mmHg 66%
    16:00 +20°C° 0.2 mm 7 mps 754 mmHg 74%
    17:00 +17°C° 0.2 mm 7 mps 754 mmHg 83%
    18:00 +17°C° 0.5 mm 7 mps 754 mmHg 84%
    19:00 +17°C° 0.5 mm 8 mps 755 mmHg 86%
    20:00 +17°C° 0.5 mm 8 mps 755 mmHg 87%
    21:00 +17°C° 0.2 mm 8 mps 755 mmHg 88%
    22:00 +17°C° 0.2 mm 9 mps 756 mmHg 89%
    23:00 +17°C° 0.2 mm 9 mps 756 mmHg 89%

    25 October, Wednesday

    Time Temperature Precipitation Wind Pressure Humidity
    00:00 +17°C° 0.1 mm 9 mps 756 mmHg 89%
    01:00 +16°C° 0.1 mm 9 mps 756 mmHg 88%
    02:00 +16°C° 0.1 mm 9 mps 757 mmHg 88%
    03:00 +16°C° 0.2 mm 10 mps 757 mmHg 88%
    04:00 +16°C° 0.2 mm 10 mps 757 mmHg 88%
    05:00 +14°C° 0.2 mm 10 mps 757 mmHg 87%
    06:00 +14°C° 0.3 mm 10 mps 758 mmHg 87%
    07:00 +13°C° 0.3 mm 10 mps 758 mmHg 87%
    08:00 +13°C° 0.3 mm 11 mps 758 mmHg 86%
    09:00 +12°C° 0.6 mm 11 mps 759 mmHg 86%
    10:00 +10°C° 0.6 mm 12 mps 759 mmHg 85%
    11:00 +10°C° 0.6 mm 12 mps 759 mmHg 84%
    12:00 +9°C° 0.6 mm 12 mps 759 mmHg 83%
    13:00 +8°C° 0.6 mm 12 mps 759 mmHg 81%
    14:00 +7°C° 0.6 mm 12 mps 759 mmHg 80%
    15:00 +7°C° 1.1 mm 12 mps 760 mmHg 80%
    16:00 +7°C° 1.1 mm 12 mps 760 mmHg 79%
    17:00 +7°C° 1.1 mm 12 mps 761 mmHg 79%
    18:00 +5°C° 0.7 mm 12 mps 761 mmHg 80%
    19:00 +5°C° 0.7 mm 12 mps 762 mmHg 80%
    20:00 +5°C° 0.7 mm 12 mps 762 mmHg 81%
    21:00 +4°C° 0.4 mm 12 mps 762 mmHg 81%
    22:00 +4°C° 0.4 mm 11 mps 763 mmHg 81%
    23:00 +4°C° 0.4 mm 11 mps 763 mmHg 82%
    Show more